CW7536 Weather Reports


Display with metric or nautical units.
time (UTC)temp
F
wind
direction
speed
MPH
gust
MPH
rain 1hr
in
rain 24hr
in
rain mn
in
humidity
%
barometer
mb
20260904093025 72 281 0.0 1.0 0.00 0.00 0.00 1 1010.6
20260904091520 72 283 0.0 0.0 0.00 0.00 0.00 1 1010.6
20260904090016 72 283 0.0 0.0 0.00 0.00 0.00 1 1010.7
20260904084513 72 283 0.0 0.0 0.00 0.00 0.00 1 1010.6
20260904083012 72 283 0.0 0.0 0.00 0.00 0.00 1 1010.7
20260904081509 72 252 0.0 1.0 0.00 0.00 0.00 1 1010.6
20260904080004 72 285 0.0 1.0 0.00 0.00 0.00 1 1010.7
20260904074612 72 281 0.0 3.0 0.00 0.00 0.00 1 1010.5
20260904073059 72 255 0.0 0.0 0.00 0.00 0.00 1 1010.5
20260904071551 72 239 0.0 1.0 0.00 0.00 0.00 1 1010.2
20260904070047 72 282 0.0 2.0 0.00 0.00 0.00 1 1010.3
20260904064542 73 240 1.0 3.0 0.00 0.00 0.00 1 1010.1
20260904063042 73 29 0.0 1.0 0.00 0.00 0.00 1 1010.1
20260904061532 74 29 1.0 2.0 0.00 0.00 0.00 1 1010.5
20260904060029 75 335 1.0 11.0 0.00 0.00 0.00 1 1011.9
20260904054523 76 278 0.0 1.0 0.00 0.00 0.00 1 1011.4
20260904053025 76 278 0.0 1.0 0.00 0.00 0.00 1 1011.4
20260904051529 76 278 0.0 0.0 0.00 0.00 0.00 1 1011.5
20260904050010 76 278 0.0 0.0 0.00 0.00 0.00 1 1011.2
20260904044506 76 278 0.0 0.0 0.00 0.00 0.00 1 1011.1
20260904043002 76 278 0.0 0.0 0.00 0.00 0.00 1 1011.5
20260904041557 77 278 0.0 0.0 0.00 0.00 0.00 1 1011.6
20260904040053 77 278 0.0 1.0 0.00 0.00 0.00 1 1011.8
20260904034549 77 278 0.0 1.0 0.00 0.00 0.00 1 1012.0
20260904033045 77 258 0.0 0.0 0.00 0.00 0.00 1 1011.9
20260904031540 77 262 0.0 0.0 0.00 0.00 0.00 1 1011.7
20260904030035 78 261 0.0 1.0 0.00 0.00 0.00 1 1011.4
20260904024531 78 261 0.0 1.0 0.00 0.00 0.00 1 1011.9
20260904023026 78 283 0.0 1.0 0.00 0.00 0.00 1 1012.3
20260904021526 78 285 0.0 1.0 0.00 0.00 0.00 1 1012.3
20260904020018 78 285 0.0 0.0 0.00 0.00 0.00 1 1012.5
20260904014513 78 285 0.0 0.0 0.00 0.00 0.00 1 1012.6
20260904013010 78 285 0.0 2.0 0.00 0.00 0.00 1 1012.9
20260904011505 78 283 0.0 1.0 0.00 0.00 0.00 1 1012.7
20260904010115 78 259 0.0 0.0 0.00 0.00 0.00 1 1012.5
20260904004555 78 254 0.0 0.0 0.00 0.00 0.00 1 1012.4
20260904003052 78 254 0.0 1.0 0.00 0.00 0.00 1 1012.3
20260904001550 78 254 0.0 0.0 0.00 0.00 0.00 1 1012.0
20260904000053 79 254 0.0 0.0 0.00 0.00 0.00 1 1012.4
20260903234540 79 255 0.0 2.0 0.00 0.00 0.00 1 1012.2
20260903233036 81 261 0.0 0.0 0.00 0.00 0.00 1 1011.9
20260903231532 82 261 0.0 0.0 0.00 0.00 0.00 1 1011.8
20260903230027 83 249 0.0 1.0 0.00 0.00 0.00 4 1011.9
20260903224523 84 245 0.0 1.0 0.00 0.00 0.00 11 1011.9
20260903223027 85 229 0.0 1.0 0.00 0.00 0.00 12 1011.9
20260903221514 86 258 0.0 2.0 0.00 0.00 0.00 18 1012.1
20260903220010 88 271 0.0 3.0 0.00 0.00 0.00 20 1012.0
20260903214509 87 270 0.0 1.0 0.00 0.00 0.00 21 1011.8
20260903213000 88 266 2.0 5.0 0.00 0.00 0.00 22 1011.8
20260903211557 88 283 0.0 6.0 0.00 0.00 0.00 20 1011.9
20260903210107 88 18 0.0 3.0 0.00 0.00 0.00 20 1011.9
20260903204604 88 292 0.0 5.0 0.00 0.00 0.00 18 1012.1
20260903203044 87 285 0.0 6.0 0.00 0.00 0.00 19 1011.9
20260903201539 87 286 1.0 7.0 0.00 0.00 0.00 19 1012.0
20260903200038 88 262 1.0 6.0 0.00 0.00 0.00 19 1012.0
20260903194530 87 290 0.0 6.0 0.00 0.00 0.00 16 1012.1
20260903193026 87 238 2.0 6.0 0.00 0.00 0.00 16 1012.2
20260903191521 87 11 1.0 5.0 0.00 0.00 0.00 13 1012.3
20260903190017 86 286 2.0 5.0 0.00 0.00 0.00 11 1012.6
20260903184513 86 30 0.0 7.0 0.00 0.00 0.00 7 1012.8
20260903183008 85 288 2.0 7.0 0.00 0.00 0.00 6 1013.1
20260903181503 85 264 3.0 8.0 0.00 0.00 0.00 4 1013.1
20260903180101 85 262 1.0 5.0 0.00 0.00 0.00 2 1013.2
20260903174555 85 263 0.0 5.0 0.00 0.00 0.00 1 1013.2
20260903173050 84 259 3.0 6.0 0.00 0.00 0.00 1 1013.5
20260903171554 83 13 1.0 8.0 0.00 0.00 0.00 1 1013.9
20260903170042 82 173 1.0 5.0 0.00 0.00 0.00 1 1013.9
20260903164543 81 263 1.0 6.0 0.00 0.00 0.00 1 1014.2
20260903163033 80 288 1.0 6.0 0.00 0.00 0.00 1 1014.3
20260903161533 79 296 1.0 8.0 0.00 0.00 0.00 1 1014.4
20260903160050 79 290 2.0 6.0 0.00 0.00 0.00 1 1014.7
20260903154520 78 294 2.0 6.0 0.00 0.00 0.00 1 1014.9
20260903153018 77 248 0.0 6.0 0.00 0.00 0.00 1 1015.1
20260903151511 76 212 2.0 9.0 0.00 0.00 0.00 1 1015.3
20260903150021 76 248 0.0 4.0 0.00 0.00 0.00 1 1015.3
20260903144502 75 241 2.0 7.0 0.00 0.00 0.00 1 1015.0
20260903143101 74 241 1.0 5.0 0.00 0.00 0.00 1 1015.2
20260903141554 73 208 1.0 8.0 0.00 0.00 0.00 1 1015.1
20260903140053 72 75 0.0 7.0 0.00 0.00 0.00 1 1015.1
20260903134545 71 279 2.0 6.0 0.00 0.00 0.00 1 1015.1
20260903133040 71 110 0.0 2.0 0.00 0.00 0.00 1 1015.4
20260903131536 70 136 0.0 4.0 0.00 0.00 0.00 1 1015.3
20260903130035 70 238 0.0 2.0 0.00 0.00 0.00 1 1015.1
20260903124527 69 176 0.0 1.0 0.00 0.00 0.00 1 1015.1
20260903123023 69 50 0.0 1.0 0.00 0.00 0.00 1 1015.1
20260903121518 68 11 0.0 5.0 0.00 0.00 0.00 1 1015.1
20260903120014 68 278 0.0 3.0 0.00 0.00 0.00 1 1014.7
20260903114510 67 186 0.0 2.0 0.00 0.00 0.00 1 1014.8
20260903113007 67 159 0.0 1.0 0.00 0.00 0.00 1 1015.2
20260903111501 67 272 0.0 2.0 0.00 0.00 0.00 1 1015.3
20260903110057 67 246 0.0 3.0 0.00 0.00 0.00 1 1015.5
20260903104553 67 286 0.0 2.0 0.00 0.00 0.00 1 1015.6
20260903103048 67 255 0.0 1.0 0.00 0.00 0.00 1 1015.6
20260903101547 67 281 0.0 2.0 0.00 0.00 0.00 1 1015.4
20260903100039 67 229 0.0 1.0 0.00 0.00 0.00 1 1015.4
20260903094537 68 290 0.0 1.0 0.00 0.00 0.00 1 1015.3